Kuching, Malaysia

9:50 AM MYT on February 26, 2017 (GMT +0800)
Kuching International

Weather History for WBGG - December, 2013

Change the Weather History Date:

Tuesday, December 3, 2013

  Actual Average Record
Temperature  
Mean Temperature 82 °F -  
Max Temperature 90 °F 87 °F - ()
Min Temperature 74 °F 73 °F - ()
Cooling Degree Days 17    
Growing Degree Days 32 (Base 50)    
Moisture  
Dew Point 75 °F    
Average Humidity 87    
Maximum Humidity 100    
Minimum Humidity 59    
Precipitation  
Precipitation 0.16 in 0.66 in - ()
Sea Level Pressure  
Sea Level Pressure 29.77 in    
Wind  
Wind Speed 3 mph ()    
Max Wind Speed 13 mph    
Max Gust Speed -    
Visibility 6.5 miles    
Events Rain , Thunderstorm    
T = Trace of Precipitation, MM = Missing Value Source: Averaged Metar Reports

Daily Weather History Graph

Daily Weather History Graph

Search for Another Location

Airport or City:

Trip Planner

Search our weather history database for the weather conditions in past years. The results will help you decide how hot, cold, wet, or windy it might be!

Date:

Astronomy

Dec. 03, 2013 Rise Set
Actual Time 6:27 AM MYT 6:29 PM MYT
Civil Twilight 6:04 AM MYT 6:52 PM MYT
Nautical Twilight 5:38 AM MYT 7:17 PM MYT
Astronomical Twilight 5:12 AM MYT 7:43 PM MYT
Moon 6:28 AM MYT (12/3) 6:52 PM MYT (12/3)
Length of Visible Light 12h 47m
Length of Day
12h 02m
New Moon, 0% of the Moon is Illuminated
Dec 3
New Moon
Dec 9
First Quarter
Dec 17
Full
Dec 25
Last Quarter
Jan 1
New

Hourly Weather History & Observations

Time (MYT) Temp. Heat Index Dew Point Humidity Pressure Visibility Wind Dir Wind Speed Gust Speed Precip Events Conditions
12:00 AM 77.0 °F - 75.2 °F 94% 29.83 in 6.2 mi WSW 2.3 mph - N/A   Mostly Cloudy
12:30 AM 77.0 °F - 75.2 °F 94% 29.83 in 6.2 mi SW 2.3 mph - N/A   Mostly Cloudy
1:00 AM 77.0 °F - 75.2 °F 94% 29.80 in 6.2 mi Calm Calm - N/A   Mostly Cloudy
1:30 AM 77.0 °F - 75.2 °F 94% 29.77 in 6.2 mi SSE 1.2 mph - N/A   Mostly Cloudy
2:00 AM 76 °F - 75 °F 96% 29.79 in 9 mi ENE 2.3 mph - -   Partly Cloudy
2:00 AM 77.0 °F - 75.2 °F 94% 29.77 in 6.2 mi ENE 2.3 mph - N/A   Mostly Cloudy
2:30 AM 75.2 °F - 75.2 °F 100% 29.77 in 6.2 mi ENE 1.2 mph - N/A   Mostly Cloudy
3:00 AM 75.2 °F - 75.2 °F 100% 29.77 in 6.2 mi ESE 3.5 mph - N/A   Mostly Cloudy
3:30 AM 75.2 °F - 75.2 °F 100% 29.74 in 6.2 mi ESE 3.5 mph - N/A   Mostly Cloudy
4:00 AM 75.2 °F - 73.4 °F 94% 29.74 in 6.2 mi SSE 3.5 mph - N/A   Mostly Cloudy
4:30 AM 75.2 °F - 73.4 °F 94% 29.77 in 6.2 mi ESE 2.3 mph - N/A   Mostly Cloudy
5:00 AM 75 °F - 74 °F 95% 29.77 in 11 mi Calm Calm - -   Partly Cloudy
5:00 AM 75.2 °F - 73.4 °F 94% 29.77 in 6.2 mi Calm Calm - N/A   Mostly Cloudy
5:30 AM 75.2 °F - 73.4 °F 94% 29.77 in 6.2 mi Calm Calm - N/A   Mostly Cloudy
6:00 AM 75.2 °F - 73.4 °F 94% 29.77 in 6.2 mi East 2.3 mph - N/A   Mostly Cloudy
6:30 AM 75.2 °F - 73.4 °F 94% 29.77 in 6.2 mi NE 1.2 mph - N/A   Mostly Cloudy
7:00 AM 75.2 °F - 75.2 °F 100% 29.77 in 6.2 mi ENE 1.2 mph - N/A   Mostly Cloudy
7:30 AM 77.0 °F - 75.2 °F 94% 29.80 in 6.2 mi East 1.2 mph - N/A   Mostly Cloudy
8:00 AM 78 °F - 75 °F 86% 29.81 in 11 mi NE 1.2 mph - -   Partly Cloudy
8:00 AM 78.8 °F - 75.2 °F 89% 29.80 in 6.2 mi NE 1.2 mph - N/A   Mostly Cloudy
8:30 AM 80.6 °F 86.2 °F 75.2 °F 84% 29.80 in 6.2 mi ENE 2.3 mph - N/A   Mostly Cloudy
9:00 AM 82.4 °F 89.5 °F 75.2 °F 79% 29.80 in 6.2 mi NE 1.2 mph - N/A   Mostly Cloudy
9:30 AM 82.4 °F 89.5 °F 75.2 °F 79% 29.83 in 6.2 mi NW 1.2 mph - N/A   Mostly Cloudy
10:00 AM 84.2 °F 92.3 °F 75.2 °F 74% 29.80 in 6.2 mi North 1.2 mph - N/A   Mostly Cloudy
10:30 AM 86.0 °F 95.1 °F 75.2 °F 70% 29.80 in 6.2 mi ENE 2.3 mph - N/A   Mostly Cloudy
11:00 AM 87 °F - 75 °F 59% 29.82 in 16 mi East 2.3 mph - -   Scattered Clouds
11:00 AM 87.8 °F 97.6 °F 75.2 °F 66% 29.80 in 6.2 mi East 2.3 mph - N/A   Mostly Cloudy
11:30 AM 87.8 °F 97.6 °F 75.2 °F 66% 29.80 in 6.2 mi ESE 3.5 mph - N/A   Mostly Cloudy
12:00 PM 87.8 °F 95.6 °F 73.4 °F 62% 29.80 in 6.2 mi East 3.5 mph - N/A   Mostly Cloudy
12:30 PM 89.6 °F 99.8 °F 75.2 °F 62% 29.77 in 6.2 mi East 4.6 mph - N/A   Mostly Cloudy
1:00 PM 89.6 °F 102.2 °F 77.0 °F 66% 29.77 in 6.2 mi NE 6.9 mph - N/A   Mostly Cloudy
1:30 PM 86.0 °F 95.1 °F 75.2 °F 70% 29.74 in 5.0 mi NE 8.1 mph - N/A Rain Light Rain Showers
2:00 PM 87 °F - 76 °F 63% 29.74 in 6 mi ENE 12.7 mph - - Rain Light Rain Showers
2:00 PM 86.0 °F 96.9 °F 77.0 °F 74% 29.74 in 6.2 mi ENE 12.7 mph - N/A   Mostly Cloudy
2:30 PM 87.8 °F 97.6 °F 75.2 °F 66% 29.71 in 6.2 mi NE 9.2 mph - N/A   Mostly Cloudy
3:00 PM 86.0 °F 95.1 °F 75.2 °F 70% 29.71 in 6.2 mi North 3.5 mph - N/A   Mostly Cloudy
3:30 PM 80.6 °F 87.1 °F 77.0 °F 89% 29.71 in 6.2 mi SSW 11.5 mph - N/A Thunderstorm Thunderstorm
4:00 PM 78.8 °F - 77.0 °F 94% 29.71 in 3.7 mi South 6.9 mph - N/A Rain , Thunderstorm Light Thunderstorms and Rain
4:30 PM 77.0 °F - 75.2 °F 94% 29.71 in 3.7 mi WNW 4.6 mph - N/A Rain , Thunderstorm Light Thunderstorms and Rain
5:00 PM 78 °F - 76 °F 93% 29.73 in 5 mi WNW 2.3 mph - - Rain , Thunderstorm Thunderstorms and Rain
5:00 PM 78.8 °F - 77.0 °F 94% 29.71 in 5.0 mi WNW 2.3 mph - N/A Rain , Thunderstorm Light Thunderstorms and Rain
5:30 PM 78.8 °F - 75.2 °F 89% 29.71 in 5.0 mi West 3.5 mph - N/A Rain Light Rain
6:00 PM 78.8 °F - 75.2 °F 89% 29.71 in 6.2 mi West 5.8 mph - N/A   Mostly Cloudy
6:30 PM 78.8 °F - 77.0 °F 94% 29.74 in 5.6 mi WSW 8.1 mph - N/A   Mostly Cloudy
7:00 PM 77.0 °F - 75.2 °F 94% 29.74 in 6.2 mi West 8.1 mph - N/A   Mostly Cloudy
7:30 PM 77.0 °F - 75.2 °F 94% 29.77 in 6.2 mi WSW 9.2 mph - N/A   Mostly Cloudy
8:00 PM 77 °F - 75 °F 92% 29.79 in 9 mi West 9.2 mph - -   Partly Cloudy
8:00 PM 77.0 °F - 75.2 °F 94% 29.77 in 6.2 mi West 9.2 mph - N/A   Mostly Cloudy
8:30 PM 77.0 °F - 75.2 °F 94% 29.80 in 6.2 mi WSW 9.2 mph - N/A   Mostly Cloudy
9:00 PM 77.0 °F - 75.2 °F 94% 29.80 in 6.2 mi West 8.1 mph - N/A   Mostly Cloudy
9:30 PM 77.0 °F - 75.2 °F 94% 29.80 in 6.2 mi West 5.8 mph - N/A   Mostly Cloudy
10:00 PM 77.0 °F - 75.2 °F 94% 29.80 in 6.2 mi West 6.9 mph - N/A   Mostly Cloudy
10:30 PM 77.0 °F - 75.2 °F 94% 29.80 in 6.2 mi West 8.1 mph - N/A   Mostly Cloudy
11:00 PM 77 °F - 74 °F 90% 29.81 in 9 mi WSW 8.1 mph - -   Partly Cloudy
11:00 PM 77.0 °F - 75.2 °F 94% 29.80 in 6.2 mi WSW 8.1 mph - N/A   Mostly Cloudy
11:30 PM 77.0 °F - 75.2 °F 94% 29.80 in 6.2 mi WSW 5.8 mph - N/A Rain Light Rain